[[{"header":{"parameterUnit":"m.s-1","parameterCategory":1,"la1":30.2991,"la2":30.254,"lo1":-89.0895,"lo2":-89.0444,"dy":0.0017,"dx":0.0017,"nx":28,"ny":28,"refTime":"2023-10-10T21:00:00:Z","depth":0,"parameterNumber":2,"parameterNumberName":"U-component_of_WINDS"},"data":[0,0,0,0,0,0,0,0,0,0,0,0,0,0,0,0,0,0,0,0,0,0,0,0,0,0,0,0,0,0,0,0,0,0,0,0,0,0,0,0,0,0,0,0,0,0,0,0,0,0,0,0,0,0,0,0,0,0,-0.63,-0.6299,0,-0.6207,-0.6206,-0.6205,-0.6153,-0.6153,-0.6153,-0.6153,-0.6055,-0.6053,-0.6051,0,0,0,0,0,0,0,0,0,0,0,0,0,-0.643,-0.6428,-0.63,-0.6299,-0.6298,-0.6207,-0.6206,-0.6205,-0.6153,-0.6153,-0.6153,-0.6153,-0.6056,-0.6053,-0.605,0,0,0,0,0,0,0,0,0,0,0,0,0,-0.6359,-0.6427,-0.63,-0.6261,-0.6257,-0.6208,-0.6206,-0.6205,-0.6154,-0.6153,-0.6153,-0.6153,-0.6057,-0.6054,-0.605,-0.6032,0,0,-0.6039,-0.6037,0,0,0,0,0,0,0,0,-0.6363,-0.6354,-0.6268,-0.6264,-0.6259,-0.6192,-0.6216,-0.6147,-0.6154,-0.6193,-0.6153,-0.6153,-0.6101,-0.6093,-0.6076,-0.6027,-0.6023,-0.6038,-0.6036,-0.6034,-0.6033,0,0,0,0,0,0,0,-0.6368,-0.6358,-0.6263,-0.6267,-0.6261,-0.6248,-0.6237,-0.6203,-0.6149,-0.6189,-0.6185,-0.6175,-0.6098,-0.608,-0.6074,-0.6021,-0.6038,-0.6035,-0.6033,-0.6031,-0.5953,-0.5953,0,0,0,0,0,0,-0.638,-0.6362,-0.6266,-0.626,-0.6312,-0.6245,-0.6234,-0.6213,-0.6149,-0.6139,-0.6175,-0.6173,-0.6087,-0.6078,-0.607,-0.6045,-0.6035,-0.6031,-0.6029,-0.5953,-0.5953,-0.5953,0,0,0,0,0,0,-0.6383,-0.6372,-0.627,-0.631,-0.6296,-0.6243,-0.6221,-0.6212,-0.6194,-0.6139,-0.6129,-0.6167,-0.6086,-0.6075,-0.6042,-0.6041,-0.6029,-0.6026,-0.5953,-0.5953,-0.5953,-0.5994,0,0,0,0,0,0,-0.6387,-0.6373,-0.6366,-0.6311,-0.6294,-0.6244,-0.6221,-0.621,-0.6188,-0.6184,-0.6128,-0.6119,-0.6085,-0.6048,-0.6038,-0.6035,-0.6023,-0.5953,-0.5953,-0.5953,-0.5993,-0.5996,-0.5998,0,0,0,0,0,-0.6391,-0.638,-0.6366,-0.6354,-0.6285,-0.6244,-0.6235,-0.6197,-0.6188,-0.618,-0.6145,-0.6121,-0.6043,-0.6045,-0.6034,-0.603,-0.5953,-0.5953,-0.5953,-0.5991,-0.5995,-0.5998,0,0,0,0,0,0,-0.6435,-0.6372,-0.6355,-0.6326,-0.6291,-0.6235,-0.6224,-0.6202,-0.6167,-0.6165,-0.6119,-0.6106,-0.6078,-0.605,-0.6054,-0.6009,-0.5995,-0.5993,-0.6028,-0.6031,-0.6034,-0.6041,-0.602,0,0,0,0,0,-0.6442,-0.6415,-0.6361,-0.634,-0.6324,-0.6277,-0.6258,-0.6232,-0.6193,-0.6178,-0.614,-0.6103,-0.607,-0.6049,-0.6015,-0.5989,-0.5976,-0.5981,-0.5984,-0.5986,-0.5985,-0.5969,-0.5971,-0.5954,-0.5954,-0.5954,0,0,-0.6455,-0.6417,-0.6402,-0.6348,-0.6318,-0.629,-0.6265,-0.6237,-0.6216,-0.6173,-0.614,-0.6111,-0.6066,-0.6036,-0.6021,-0.6013,-0.5987,-0.5987,-0.5989,-0.5986,-0.597,-0.5971,-0.5973,-0.5954,-0.5954,-0.5954,0,0,-0.6464,-0.6433,-0.6412,-0.6383,-0.6338,-0.6307,-0.6303,-0.625,-0.623,-0.6196,-0.6164,-0.6138,-0.6082,-0.6052,-0.6029,-0.6028,-0.6005,-0.6019,-0.6033,-0.6019,-0.602,-0.6021,-0.6021,-0.6021,-0.6018,-0.6018,-0.6018,0,-0.6485,-0.6443,-0.6404,-0.6378,-0.6356,-0.6317,-0.6296,-0.6269,-0.6215,-0.62,-0.6192,-0.6122,-0.6089,-0.6051,-0.6052,-0.6034,-0.6027,-0.6024,-0.6023,-0.6024,-0.6024,-0.6023,-0.6023,-0.602,-0.602,-0.6019,-0.6019,0,-0.6471,-0.6443,-0.6432,-0.6382,-0.6358,-0.6335,-0.6292,-0.6272,-0.6249,-0.6219,-0.6185,-0.6145,-0.6103,-0.6092,-0.6068,-0.6052,-0.6048,-0.6032,-0.6017,-0.6028,-0.6027,-0.6026,-0.6023,-0.6022,-0.6021,-0.6021,0,0,-0.6504,-0.6435,-0.6431,-0.6408,-0.6357,-0.6333,-0.6309,-0.6269,-0.6253,-0.6217,-0.6195,-0.6149,-0.6135,-0.6109,-0.6082,-0.6069,-0.6071,-0.6054,-0.6052,-0.6059,-0.605,-0.6063,-0.6063,-0.6056,-0.6055,-0.6055,-0.6054,0,-0.6505,-0.646,-0.6425,-0.6392,-0.6365,-0.6329,-0.6308,-0.6273,-0.6245,-0.6218,-0.6187,-0.6155,-0.6138,-0.6123,-0.6108,-0.6074,-0.6069,-0.6074,-0.6034,-0.6033,-0.6046,-0.6062,-0.6074,-0.6075,-0.6053,-0.6053,-0.6053,0,-0.6501,-0.6468,-0.6433,-0.6385,-0.6372,-0.6353,-0.6315,-0.6289,-0.625,-0.623,-0.6203,-0.6175,-0.6146,-0.6135,-0.6095,-0.6099,-0.6081,-0.6062,-0.6061,-0.6055,-0.6043,-0.6057,-0.6075,-0.6075,-0.6052,-0.6052,-0.6052,0,-0.6528,-0.6475,-0.6447,-0.6429,-0.6372,-0.636,-0.6336,-0.6296,-0.6275,-0.6241,-0.6226,-0.6189,-0.6169,-0.614,-0.6103,-0.6098,-0.6068,-0.6053,-0.605,-0.6051,-0.6044,-0.6045,-0.606,-0.6034,-0.6034,-0.6034,-0.6034,0,-0.6533,-0.6513,-0.6459,-0.6442,-0.6419,-0.6379,-0.6357,-0.6329,-0.6294,-0.6271,-0.6237,-0.6216,-0.6169,-0.6142,-0.6112,-0.6084,-0.6075,-0.6058,-0.605,-0.6061,-0.6063,-0.6048,-0.6047,-0.6034,-0.6034,-0.6034,-0.6034,0,-0.6559,-0.6523,-0.649,-0.644,-0.6427,-0.6411,-0.6368,-0.635,-0.6321,-0.6292,-0.6282,-0.6236,-0.6203,-0.6163,-0.6116,-0.6097,-0.6071,-0.606,-0.6085,-0.608,-0.608,-0.608,-0.6084,-0.6083,-0.6059,-0.6059,-0.6059,0,-0.6565,-0.6549,-0.6497,-0.648,-0.6457,-0.6429,-0.6407,-0.6368,-0.6347,-0.6301,-0.6289,-0.6253,-0.6222,-0.617,-0.6132,-0.6096,-0.6084,-0.6088,-0.6078,-0.6089,-0.6083,-0.6085,-0.6083,-0.609,-0.6091,-0.6091,-0.6091,0,-0.6578,-0.6561,-0.6532,-0.6497,-0.6472,-0.6442,-0.6411,-0.6398,-0.6352,-0.633,-0.6296,-0.6273,-0.6226,-0.6191,-0.615,-0.6124,-0.61,-0.6095,-0.6092,-0.6102,-0.6118,-0.6109,-0.6091,-0.6095,-0.6094,-0.6094,-0.6094,-0.6094,-0.6594,-0.6578,-0.654,-0.6508,-0.6481,-0.6453,-0.6434,-0.6403,-0.6374,-0.6333,-0.6312,-0.6278,-0.624,-0.6183,-0.6159,-0.6132,-0.6123,-0.6119,-0.6118,-0.6118,-0.6121,-0.6123,-0.6124,-0.6124,-0.6124,-0.6124,-0.6124,0,-0.6605,-0.6579,-0.6551,-0.6509,-0.6484,-0.6465,-0.643,-0.641,-0.6382,-0.6348,-0.6319,-0.628,-0.6247,-0.6207,-0.617,-0.6156,-0.6144,-0.6148,-0.6148,-0.6142,-0.6131,-0.6137,-0.6158,-0.6158,-0.6158,-0.6158,-0.6158,-0.6158,-0.6608,-0.6581,-0.656,-0.6519,-0.6492,-0.646,-0.6442,-0.6415,-0.6389,-0.6347,-0.6319,-0.6294,-0.6258,-0.6219,-0.6187,-0.6176,-0.6164,-0.6171,-0.6157,-0.6146,-0.6143,-0.614,-0.6146,-0.6169,-0.6169,-0.617,-0.617,-0.617]},{"header":{"parameterUnit":"m.s-1","parameterCategory":1,"la1":30.2991,"la2":30.254,"lo1":-89.0895,"lo2":-89.0444,"dy":0.0017,"dx":0.0017,"nx":28,"ny":28,"refTime":"2023-10-10T21:00:00:Z","depth":0,"parameterNumber":3,"parameterNumberName":"V-component_of_WINDS"},"data":[0,0,0,0,0,0,0,0,0,0,0,0,0,0,0,0,0,0,0,0,0,0,0,0,0,0,0,0,0,0,0,0,0,0,0,0,0,0,0,0,0,0,0,0,0,0,0,0,0,0,0,0,0,0,0,0,0,0,1.4334,1.4333,0,1.4285,1.4284,1.4283,1.4336,1.4338,1.434,1.4342,1.4283,1.4279,1.4276,0,0,0,0,0,0,0,0,0,0,0,0,0,1.4465,1.4462,1.4334,1.4333,1.4333,1.4285,1.4284,1.4283,1.4335,1.4338,1.434,1.4342,1.4284,1.428,1.4275,0,0,0,0,0,0,0,0,0,0,0,0,0,1.4411,1.4461,1.4334,1.4353,1.4354,1.4285,1.4284,1.4283,1.4335,1.4338,1.4341,1.4344,1.4285,1.428,1.4275,1.4182,0,0,1.4259,1.4257,0,0,0,0,0,0,0,0,1.4414,1.4406,1.4351,1.4352,1.4353,1.432,1.4309,1.4249,1.4334,1.4342,1.4342,1.4345,1.4292,1.4286,1.427,1.4179,1.4176,1.4259,1.4255,1.4253,1.4252,0,0,0,0,0,0,0,1.4417,1.4408,1.4314,1.435,1.4351,1.4361,1.4357,1.4297,1.43,1.4341,1.4345,1.4339,1.4293,1.4275,1.4269,1.4176,1.4259,1.4254,1.4251,1.4249,1.4003,1.4,0,0,0,0,0,0,1.442,1.4411,1.4316,1.4313,1.4392,1.4356,1.4352,1.4327,1.4301,1.43,1.4336,1.4342,1.4282,1.4275,1.4267,1.4155,1.4253,1.4248,1.4245,1.4007,1.4002,1.3999,0,0,0,0,0,0,1.4423,1.4411,1.4318,1.4363,1.4352,1.4351,1.4323,1.4324,1.4307,1.4297,1.4297,1.4318,1.4284,1.4274,1.4203,1.4153,1.4246,1.4241,1.4011,1.4005,1.4001,1.393,0,0,0,0,0,0,1.4426,1.4412,1.4378,1.4362,1.4349,1.4256,1.432,1.4321,1.4298,1.4305,1.428,1.4279,1.4286,1.421,1.4197,1.4148,1.4237,1.4015,1.4008,1.4002,1.3936,1.3923,1.3911,0,0,0,0,0,1.4431,1.4359,1.4376,1.4365,1.4308,1.4253,1.4246,1.4258,1.4294,1.4259,1.4253,1.428,1.4162,1.4202,1.4189,1.4137,1.4018,1.401,1.4003,1.3942,1.3925,1.3911,0,0,0,0,0,0,1.4367,1.4357,1.4376,1.4298,1.4276,1.4262,1.4218,1.424,1.4206,1.4213,1.4227,1.4221,1.4145,1.4134,1.418,1.4044,1.4095,1.4084,1.4054,1.4038,1.4026,1.4028,1.4233,0,0,0,0,0,1.4344,1.4303,1.4296,1.4227,1.4216,1.4219,1.4196,1.4207,1.4184,1.4175,1.4164,1.4138,1.4095,1.4066,1.4027,1.3936,1.393,1.3893,1.3881,1.387,1.386,1.3809,1.3792,1.3974,1.3974,1.3974,0,0,1.4295,1.4285,1.4258,1.4214,1.4199,1.4153,1.4211,1.4161,1.4126,1.4166,1.4098,1.4089,1.4061,1.3979,1.3942,1.3967,1.3809,1.3861,1.3852,1.3847,1.3799,1.3782,1.3767,1.3968,1.3969,1.397,0,0,1.4183,1.4172,1.4113,1.4097,1.4075,1.4077,1.4063,1.4046,1.4042,1.3975,1.4003,1.3961,1.3888,1.3867,1.3846,1.3726,1.3748,1.3713,1.3645,1.3596,1.3581,1.3569,1.3523,1.3507,1.3703,1.3703,1.3702,0,1.4124,1.406,1.4079,1.4027,1.4005,1.4043,1.3981,1.3964,1.3928,1.3911,1.3941,1.3849,1.3833,1.3745,1.3716,1.3699,1.3681,1.3714,1.3583,1.357,1.3558,1.3515,1.3498,1.3698,1.3699,1.3699,1.37,0,1.3988,1.3942,1.3897,1.3864,1.3838,1.3781,1.3788,1.3759,1.3773,1.3772,1.3701,1.3684,1.364,1.3621,1.3633,1.3534,1.355,1.3581,1.3632,1.3536,1.3496,1.348,1.3692,1.3694,1.3695,1.3696,0,0,1.3831,1.3811,1.3794,1.3779,1.3757,1.3721,1.3665,1.3625,1.3598,1.3572,1.3523,1.3461,1.3489,1.3466,1.3476,1.3432,1.3335,1.3468,1.3468,1.3442,1.3222,1.3198,1.3179,1.3351,1.3348,1.3346,1.3224,0,1.3717,1.3623,1.3638,1.3545,1.3502,1.3537,1.3488,1.3468,1.3465,1.3426,1.3422,1.3377,1.3419,1.3404,1.3363,1.3356,1.3291,1.3365,1.3302,1.33,1.3306,1.3158,1.3132,1.3017,1.3209,1.3206,1.3204,0,1.357,1.3542,1.3445,1.343,1.3412,1.3368,1.3332,1.3296,1.3272,1.3273,1.3247,1.3265,1.3206,1.3261,1.3178,1.3228,1.3203,1.3196,1.3192,1.3184,1.3244,1.3143,1.2982,1.2963,1.318,1.3182,1.3183,0,1.3463,1.34,1.3334,1.332,1.3301,1.3269,1.3259,1.3239,1.3214,1.3182,1.3165,1.3126,1.3103,1.3071,1.3076,1.3116,1.2991,1.3046,1.2987,1.2986,1.2957,1.2958,1.2786,1.2945,1.2945,1.2946,1.2946,0,1.3332,1.327,1.3286,1.3244,1.3176,1.3194,1.3125,1.3119,1.3101,1.3057,1.3085,1.3043,1.3055,1.3012,1.3016,1.2945,1.2935,1.2932,1.2933,1.2928,1.2928,1.291,1.2916,1.2941,1.2942,1.2943,1.2944,0,1.3199,1.3207,1.3137,1.3125,1.3121,1.3071,1.3059,1.3019,1.302,1.2964,1.2951,1.295,1.2902,1.2906,1.285,1.2852,1.2764,1.2776,1.2772,1.2774,1.2713,1.2718,1.2521,1.2495,1.2674,1.2672,1.2671,0,1.3113,1.3067,1.3051,1.3026,1.3014,1.2972,1.2947,1.2962,1.2934,1.2905,1.2867,1.2822,1.2786,1.2706,1.2698,1.2655,1.2665,1.2599,1.2658,1.2654,1.266,1.2662,1.2656,1.2586,1.2584,1.2582,1.2581,0,1.2959,1.2966,1.2931,1.2896,1.2866,1.2839,1.2815,1.2791,1.2804,1.2771,1.2723,1.2695,1.264,1.2593,1.2552,1.2539,1.256,1.2563,1.2547,1.2539,1.2538,1.2535,1.2738,1.2567,1.2568,1.2569,1.257,1.2571,1.2846,1.2806,1.2789,1.2748,1.2732,1.2708,1.267,1.2667,1.2628,1.2586,1.2597,1.2542,1.2518,1.2466,1.2449,1.2404,1.2427,1.2404,1.2397,1.2391,1.2383,1.2548,1.2397,1.2397,1.2398,1.2398,1.2398,0,1.2691,1.2682,1.2645,1.2611,1.2578,1.2606,1.258,1.255,1.2502,1.248,1.2445,1.2389,1.2344,1.2333,1.2289,1.2255,1.2264,1.2243,1.2244,1.224,1.2366,1.2383,1.2237,1.2237,1.2237,1.2237,1.2237,1.2237,1.2607,1.2541,1.2545,1.2471,1.2462,1.241,1.2393,1.237,1.2353,1.229,1.2253,1.2248,1.223,1.2185,1.2144,1.2142,1.2123,1.2097,1.2098,1.2215,1.2231,1.2247,1.2263,1.2094,1.2093,1.1976,1.1975,1.1974]}]]